Palm Springs, CA

11:52 PM PDT on September 02, 2015 (GMT -0700)
Palm Springs International | | Change Station
CLOSE
Current Station
Airport
Location: Palm Springs,
Elevation: 476 ft
Nearby Weather Stations

Elev 476 ft 33.82 °N, 116.50 °W | Updated 59 minutes ago

Partly Cloudy
Partly Cloudy
87 °F
Feels Like 87 °F
N
10
Wind Variable Wind from WNW

Today
High -- | Low -- °F
--% Chance of Precip.
Yesterday
High -- | Low -- °F
Precip. -- in
6:20 AM 7:10 PM
Waning Gibbous, 73% visible
Pressure 29.78 in
Visibility 10.0 miles
Clouds Clear
Dew Point 42 °F
Humidity 21%
Rainfall 0.00 in
Snow Depth Not available.
UV 0 out of 12
Pollen 7.00 out of 12
Air Quality Not available.
Flu Activity Not available.
METAR KPSP 030553Z AUTO 30009KT 10SM CLR 31/06 A2979 RMK AO2 SLP083 T03060056 10378 20306 51009 TSNO
Pressure 29.78 in
Visibility 10.0 miles
Clouds Clear
Dew Point 42 °F
Humidity 21%
Rainfall 0.00 in
Snow Depth Not available.
UV 0 out of 12
Pollen 7.00 out of 12
Air Quality Not available.
Flu Activity Not available.
METAR KPSP 030553Z AUTO 30009KT 10SM CLR 31/06 A2979 RMK AO2 SLP083 T03060056 10378 20306 51009 TSNO

10-Day Weather Forecast

×

Almanac

Astronomy

Sep. 02, 2015 Rise Set
Actual Time
Civil Twilight
Nautical Twilight
Astronomical Twilight
Moon
Length of Visible Light
Length of Day
Tomorrow will be .
, % of the Moon is Illuminated

Today's Extremes

State Highs State Lows

Community

WunderPhotos

Upload Photos

1,851,913 photos uploaded!

WunderBlogs® & News

Nearby

Air Quality

  Air Quality AQ Index Pollutant
Not available.

Snow Depth

Station Depth Elevation

Earthquake Activity

City Distance Mag. Time & Date
Minimum magnitude displayed is 2.5.

Coastal Water Temperatures

Place Temperature

Stations

Nearby Weather Stations

Station Location Temp. Windchill Dew Point Humidity Wind Precip. Elev Updated Type